{"data":{"norad_id":63255,"epoch":"2026-09-22T23:37:04.836864Z","epoch_age_seconds":93946,"freshness":"FRESH","line1":"1 63255U 25052AX  26265.98408376  .00001451  00000+0  13601-3 0  9995","line2":"2 63255  97.6736 155.9376 0000692 175.4874 184.6354 14.95536019 83263","mean_motion":14.95536019,"eccentricity":6.92e-5,"inclination_deg":97.6736,"raan_deg":155.9376,"arg_perigee_deg":175.4874,"mean_anomaly_deg":184.6354,"bstar":0.00013601,"rev_number":8326,"period_min":96.286547545867,"perigee_km":580.22794312432,"apogee_km":581.19104747927,"semimajor_km":6958.8464953018,"source":"CELESTRAK","updated_at":"2026-09-23T09:00:21.939115Z"}}